Location: Barcelona
(41.3830°N, 2.1830°E)
Time: 05:21:34
(UTC+01:00)

ISS - Pass Details

Date: 10 November 2019
Orbit: 412 x 421 km, 51.6° (Epoch: 12 November)

Event Time Altitude Azimuth Distance (km) Brightness Sun altitude
Exits shadow 05:00:52 16° 59° (ENE) 1,196 -0.8 -28.7°
Drops below altitude 10° 05:01:55 10° 73° (ENE) 1,502 -0.1 -28.5°
Sets 05:04:19 0° 89° (E) 2,363 1.3 -28.1°
